SQ6XL-13 Weather Reports


time (UTC)temp
F
wind
direction
speed
knots
gust
knots
rain 1hr
in
rain 24hr
in
rain mn
in
humidity
%
barometer
mb
20260504110427 73 0.0 0.0 0.00 0.00 0.00 44 1013.9
20260504081429 67 0.0 0.0 0.00 0.00 0.00 52 1014.9
20260504080557 66 0.0 0.0 0.00 0.00 0.00 51 1014.8
20260504060127 62 0.0 0.0 0.00 0.00 0.00 53 1014.8
20260504050542 61 0.0 0.0 0.00 0.00 0.00 51 1014.2
20260504045711 61 0.0 0.0 0.00 0.00 0.00 50 1013.9
20260504044817 61 0.0 0.0 0.00 0.00 0.00 50 1013.8
20260504043851 61 0.0 0.0 0.00 0.00 0.00 49 1013.7
20260504042852 61 0.0 0.0 0.00 0.00 0.00 49 1013.7
20260504041957 61 0.0 0.0 0.00 0.00 0.00 49 1013.8
20260504041031 61 0.0 0.0 0.00 0.00 0.00 49 1013.8
20260504040221 61 0.0 0.0 0.00 0.00 0.00 48 1013.8
20260504035234 61 0.0 0.0 0.00 0.00 0.00 48 1013.7
20260504034331 61 0.0 0.0 0.00 0.00 0.00 47 1013.8
20260504033402 61 0.0 0.0 0.00 0.00 0.00 47 1013.7
20260504032457 61 0.0 0.0 0.00 0.00 0.00 47 1013.7
20260504031511 61 0.0 0.0 0.00 0.00 0.00 47 1013.7
20260504030607 61 0.0 0.0 0.00 0.00 0.00 47 1013.7
20260504025731 60 0.0 0.0 0.00 0.00 0.00 47 1013.7
20260504024822 60 0.0 0.0 0.00 0.00 0.00 47 1013.7
20260504023821 61 0.0 0.0 0.00 0.00 0.00 46 1013.8
20260504022931 61 0.0 0.0 0.00 0.00 0.00 46 1013.8
20260504022051 61 0.0 0.0 0.00 0.00 0.00 46 1013.7
20260504021242 61 0.0 0.0 0.00 0.00 0.00 46 1013.8
20260504020426 61 0.0 0.0 0.00 0.00 0.00 45 1013.7
20260504015507 61 0.0 0.0 0.00 0.00 0.00 45 1013.6
20260504014642 61 0.0 0.0 0.00 0.00 0.00 45 1013.7
20260504013817 61 0.0 0.0 0.00 0.00 0.00 45 1013.6
20260504012917 61 0.0 0.0 0.00 0.00 0.00 45 1013.6
20260504011922 62 0.0 0.0 0.00 0.00 0.00 45 1013.5
20260504011051 62 0.0 0.0 0.00 0.00 0.00 45 1013.4
20260504010052 62 0.0 0.0 0.00 0.00 0.00 44 1013.3
20260504005247 62 0.0 0.0 0.00 0.00 0.00 44 1013.4
20260504004407 62 0.0 0.0 0.00 0.00 0.00 44 1013.7
20260504003531 62 0.0 0.0 0.00 0.00 0.00 44 1013.6
20260504002637 62 0.0 0.0 0.00 0.00 0.00 43 1013.6
20260504001817 62 0.0 0.0 0.00 0.00 0.00 43 1013.6
20260504000956 62 0.0 0.0 0.00 0.00 0.00 43 1013.6
20260504000107 62 0.0 0.0 0.00 0.00 0.00 44 1013.6
20260503235237 62 0.0 0.0 0.00 0.00 0.00 43 1013.8
20260503234317 62 0.0 0.0 0.00 0.00 0.00 43 1013.8
20260503233342 62 0.0 0.0 0.00 0.00 0.00 43 1013.9
20260503232515 62 0.0 0.0 0.00 0.00 0.00 43 1013.8
20260503231547 63 0.0 0.0 0.00 0.00 0.00 42 1013.8
20260503230702 63 0.0 0.0 0.00 0.00 0.00 42 1013.9
20260503225707 63 0.0 0.0 0.00 0.00 0.00 42 1013.9
20260503224807 63 0.0 0.0 0.00 0.00 0.00 43 1014.0
20260503223851 63 0.0 0.0 0.00 0.00 0.00 43 1014.1
20260503223011 63 0.0 0.0 0.00 0.00 0.00 44 1014.0
20260503222017 63 0.0 0.0 0.00 0.00 0.00 44 1014.1
20260503221142 63 0.0 0.0 0.00 0.00 0.00 45 1014.1
20260503220322 63 0.0 0.0 0.00 0.00 0.00 45 1014.3
20260503215417 63 0.0 0.0 0.00 0.00 0.00 45 1014.3
20260503214601 64 0.0 0.0 0.00 0.00 0.00 46 1014.3
20260503213712 64 0.0 0.0 0.00 0.00 0.00 46 1014.3
20260503212807 64 0.0 0.0 0.00 0.00 0.00 46 1014.5
20260503211901 64 0.0 0.0 0.00 0.00 0.00 47 1014.6
20260503211057 64 0.0 0.0 0.00 0.00 0.00 46 1014.6
20260503210242 64 0.0 0.0 0.00 0.00 0.00 46 1014.7
20260503205417 63 0.0 0.0 0.00 0.00 0.00 47 1014.8
20260503204557 63 0.0 0.0 0.00 0.00 0.00 47 1014.9
20260503203712 63 0.0 0.0 0.00 0.00 0.00 48 1014.7
20260503202722 64 0.0 0.0 0.00 0.00 0.00 47 1014.8
20260503201747 64 0.0 0.0 0.00 0.00 0.00 46 1014.7
20260503200755 64 0.0 0.0 0.00 0.00 0.00 46 1014.7
20260503195957 64 0.0 0.0 0.00 0.00 0.00 46 1014.8
20260503195002 64 0.0 0.0 0.00 0.00 0.00 46 1014.9
20260503194042 65 0.0 0.0 0.00 0.00 0.00 45 1014.8
20260503193147 65 0.0 0.0 0.00 0.00 0.00 45 1014.8
20260503192207 65 0.0 0.0 0.00 0.00 0.00 45 1014.8
20260503191300 65 0.0 0.0 0.00 0.00 0.00 44 1014.8
20260503190457 65 0.0 0.0 0.00 0.00 0.00 45 1014.7
20260503185551 65 0.0 0.0 0.00 0.00 0.00 45 1014.8
20260503184731 65 0.0 0.0 0.00 0.00 0.00 45 1014.8
20260503183842 66 0.0 0.0 0.00 0.00 0.00 44 1014.6
20260503183017 66 0.0 0.0 0.00 0.00 0.00 43 1014.5
20260503182142 67 0.0 0.0 0.00 0.00 0.00 43 1014.5
20260503181247 68 0.0 0.0 0.00 0.00 0.00 40 1014.5
20260503180447 68 0.0 0.0 0.00 0.00 0.00 39 1014.3
20260503175537 68 0.0 0.0 0.00 0.00 0.00 39 1014.4
20260503174602 68 0.0 0.0 0.00 0.00 0.00 39 1014.4
20260503173611 69 0.0 0.0 0.00 0.00 0.00 38 1014.4
20260503172702 70 0.0 0.0 0.00 0.00 0.00 36 1014.3
20260503171837 70 0.0 0.0 0.00 0.00 0.00 36 1014.3
20260503171017 71 0.0 0.0 0.00 0.00 0.00 35 1014.3
20260503170142 72 0.0 0.0 0.00 0.00 0.00 35 1014.3
20260503150619 75 0.0 0.0 0.00 0.00 0.00 34 1014.8
20260503131237 77 0.0 0.0 0.00 0.00 0.00 33 1015.9
20260503130241 78 0.0 0.0 0.00 0.00 0.00 33 1016.1